owner,sensor,date,latitude,longitude,sea_water_turbidity,qcFlag 
NERRS,ioos:station:NOAA.NERRS:rkblhwq:1,2017-11-01T00:45:00Z,26.0257,-81.7332,44.0,1111122 
NERRS,ioos:station:NOAA.NERRS:rkblhwq:1,2017-11-01T01:45:00Z,26.0257,-81.7332,15.0,1111122 
NERRS,ioos:station:NOAA.NERRS:rkblhwq:1,2017-11-01T02:45:00Z,26.0257,-81.7332,82.0,1111122 
NERRS,ioos:station:NOAA.NERRS:rkblhwq:1,2017-11-01T03:45:00Z,26.0257,-81.7332,44.0,1111122 
NERRS,ioos:station:NOAA.NERRS:rkblhwq:1,2017-11-01T04:45:00Z,26.0257,-81.7332,156.0,1111122 
NERRS,ioos:station:NOAA.NERRS:rkblhwq:1,2017-11-01T05:45:00Z,26.0257,-81.7332,855.0,1111122 
NERRS,ioos:station:NOAA.NERRS:rkblhwq:1,2017-11-01T06:45:00Z,26.0257,-81.7332,943.0,1111122 
NERRS,ioos:station:NOAA.NERRS:rkblhwq:1,2017-11-01T07:45:00Z,26.0257,-81.7332,1146.0,1111122 
NERRS,ioos:station:NOAA.NERRS:rkblhwq:1,2017-11-01T08:45:00Z,26.0257,-81.7332,1072.0,1111122 
NERRS,ioos:station:NOAA.NERRS:rkblhwq:1,2017-11-01T09:45:00Z,26.0257,-81.7332,1211.0,1111122 
NERRS,ioos:station:NOAA.NERRS:rkblhwq:1,2017-11-01T10:45:00Z,26.0257,-81.7332,1121.0,1111122 
NERRS,ioos:station:NOAA.NERRS:rkblhwq:1,2017-11-01T11:45:00Z,26.0257,-81.7332,56.0,1111122 
NERRS,ioos:station:NOAA.NERRS:rkblhwq:1,2017-11-01T12:45:00Z,26.0257,-81.7332,58.0,1111122 
NERRS,ioos:station:NOAA.NERRS:rkblhwq:1,2017-11-01T13:45:00Z,26.0257,-81.7332,82.0,1111122 
NERRS,ioos:station:NOAA.NERRS:rkblhwq:1,2017-11-01T14:45:00Z,26.0257,-81.7332,20.0,1111122 
NERRS,ioos:station:NOAA.NERRS:rkblhwq:1,2017-11-01T15:45:00Z,26.0257,-81.7332,91.0,1111122 
NERRS,ioos:station:NOAA.NERRS:rkblhwq:1,2017-11-01T16:45:00Z,26.0257,-81.7332,345.0,1111122 
NERRS,ioos:station:NOAA.NERRS:rkblhwq:1,2017-11-01T17:45:00Z,26.0257,-81.7332,644.0,1111122 
NERRS,ioos:station:NOAA.NERRS:rkblhwq:1,2017-11-01T18:45:00Z,26.0257,-81.7332,812.0,1111122 
NERRS,ioos:station:NOAA.NERRS:rkblhwq:1,2017-11-01T19:45:00Z,26.0257,-81.7332,631.0,1111122 
NERRS,ioos:station:NOAA.NERRS:rkblhwq:1,2017-11-01T20:45:00Z,26.0257,-81.7332,694.0,1111122 
NERRS,ioos:station:NOAA.NERRS:rkblhwq:1,2017-11-01T21:45:00Z,26.0257,-81.7332,503.0,1111122 
NERRS,ioos:station:NOAA.NERRS:rkblhwq:1,2017-11-01T22:45:00Z,26.0257,-81.7332,242.0,1111122 
NERRS,ioos:station:NOAA.NERRS:rkblhwq:1,2017-11-01T23:45:00Z,26.0257,-81.7332,123.0,1111122 
NERRS,ioos:station:NOAA.NERRS:rkblhwq:1,2017-11-02T00:45:00Z,26.0257,-81.7332,458.0,1111122 
NERRS,ioos:station:NOAA.NERRS:rkblhwq:1,2017-11-02T01:45:00Z,26.0257,-81.7332,52.0,1111122 
NERRS,ioos:station:NOAA.NERRS:rkblhwq:1,2017-11-02T02:45:00Z,26.0257,-81.7332,163.0,1111122 
NERRS,ioos:station:NOAA.NERRS:rkblhwq:1,2017-11-02T03:45:00Z,26.0257,-81.7332,614.0,1111122 
NERRS,ioos:station:NOAA.NERRS:rkblhwq:1,2017-11-02T04:45:00Z,26.0257,-81.7332,801.0,1111122 
NERRS,ioos:station:NOAA.NERRS:rkblhwq:1,2017-11-02T05:45:00Z,26.0257,-81.7332,1160.0,1111122 
NERRS,ioos:station:NOAA.NERRS:rkblhwq:1,2017-11-02T06:45:00Z,26.0257,-81.7332,1217.0,1111122 
NERRS,ioos:station:NOAA.NERRS:rkblhwq:1,2017-11-02T07:45:00Z,26.0257,-81.7332,1071.0,1111122 
NERRS,ioos:station:NOAA.NERRS:rkblhwq:1,2017-11-02T08:45:00Z,26.0257,-81.7332,967.0,1111122 
NERRS,ioos:station:NOAA.NERRS:rkblhwq:1,2017-11-02T09:45:00Z,26.0257,-81.7332,1242.0,1111122 
NERRS,ioos:station:NOAA.NERRS:rkblhwq:1,2017-11-02T10:45:00Z,26.0257,-81.7332,1272.0,1111122 
NERRS,ioos:station:NOAA.NERRS:rkblhwq:1,2017-11-02T11:45:00Z,26.0257,-81.7332,536.0,1111122 
NERRS,ioos:station:NOAA.NERRS:rkblhwq:1,2017-11-02T12:45:00Z,26.0257,-81.7332,304.0,1111122 
NERRS,ioos:station:NOAA.NERRS:rkblhwq:1,2017-11-02T13:45:00Z,26.0257,-81.7332,473.0,1111122 
NERRS,ioos:station:NOAA.NERRS:rkblhwq:1,2017-11-02T14:45:00Z,26.0257,-81.7332,136.0,1111122 
NERRS,ioos:station:NOAA.NERRS:rkblhwq:1,2017-11-02T15:45:00Z,26.0257,-81.7332,206.0,1111122 
NERRS,ioos:station:NOAA.NERRS:rkblhwq:1,2017-11-02T16:45:00Z,26.0257,-81.7332,469.0,1111122 
NERRS,ioos:station:NOAA.NERRS:rkblhwq:1,2017-11-02T17:45:00Z,26.0257,-81.7332,288.0,1111122 
NERRS,ioos:station:NOAA.NERRS:rkblhwq:1,2017-11-02T18:45:00Z,26.0257,-81.7332,1230.0,1111122 
NERRS,ioos:station:NOAA.NERRS:rkblhwq:1,2017-11-02T19:45:00Z,26.0257,-81.7332,1081.0,1111122 
NERRS,ioos:station:NOAA.NERRS:rkblhwq:1,2017-11-02T20:45:00Z,26.0257,-81.7332,1163.0,1111122 
NERRS,ioos:station:NOAA.NERRS:rkblhwq:1,2017-11-02T21:45:00Z,26.0257,-81.7332,1283.0,1111122 
NERRS,ioos:station:NOAA.NERRS:rkblhwq:1,2017-11-02T22:45:00Z,26.0257,-81.7332,1285.0,1111122 
NERRS,ioos:station:NOAA.NERRS:rkblhwq:1,2017-11-02T23:45:00Z,26.0257,-81.7332,1283.0,1111122 
NERRS,ioos:station:NOAA.NERRS:rkblhwq:1,2017-11-03T00:45:00Z,26.0257,-81.7332,156.0,1111122 
NERRS,ioos:station:NOAA.NERRS:rkblhwq:1,2017-11-03T01:45:00Z,26.0257,-81.7332,141.0,1111122 
NERRS,ioos:station:NOAA.NERRS:rkblhwq:1,2017-11-03T02:45:00Z,26.0257,-81.7332,1174.0,1111122 
NERRS,ioos:station:NOAA.NERRS:rkblhwq:1,2017-11-03T03:45:00Z,26.0257,-81.7332,776.0,1111122 
NERRS,ioos:station:NOAA.NERRS:rkblhwq:1,2017-11-03T04:45:00Z,26.0257,-81.7332,77.0,1111122 
NERRS,ioos:station:NOAA.NERRS:rkblhwq:1,2017-11-03T05:45:00Z,26.0257,-81.7332,255.0,1111122 
NERRS,ioos:station:NOAA.NERRS:rkblhwq:1,2017-11-03T06:45:00Z,26.0257,-81.7332,565.0,1111122 
NERRS,ioos:station:NOAA.NERRS:rkblhwq:1,2017-11-03T07:45:00Z,26.0257,-81.7332,1142.0,1111122 
NERRS,ioos:station:NOAA.NERRS:rkblhwq:1,2017-11-03T08:45:00Z,26.0257,-81.7332,1278.0,1111122 
NERRS,ioos:station:NOAA.NERRS:rkblhwq:1,2017-11-03T09:45:00Z,26.0257,-81.7332,1278.0,1111122 
NERRS,ioos:station:NOAA.NERRS:rkblhwq:1,2017-11-03T10:45:00Z,26.0257,-81.7332,1278.0,1111122 
NERRS,ioos:station:NOAA.NERRS:rkblhwq:1,2017-11-03T11:45:00Z,26.0257,-81.7332,1273.0,1111122 
NERRS,ioos:station:NOAA.NERRS:rkblhwq:1,2017-11-03T12:45:00Z,26.0257,-81.7332,210.0,1111122 
NERRS,ioos:station:NOAA.NERRS:rkblhwq:1,2017-11-03T13:45:00Z,26.0257,-81.7332,1135.0,1111122 
NERRS,ioos:station:NOAA.NERRS:rkblhwq:1,2017-11-03T14:45:00Z,26.0257,-81.7332,397.0,1111122 
NERRS,ioos:station:NOAA.NERRS:rkblhwq:1,2017-11-03T15:45:00Z,26.0257,-81.7332,622.0,1111122 
NERRS,ioos:station:NOAA.NERRS:rkblhwq:1,2017-11-03T16:45:00Z,26.0257,-81.7332,267.0,1111122 
NERRS,ioos:station:NOAA.NERRS:rkblhwq:1,2017-11-03T17:45:00Z,26.0257,-81.7332,217.0,1111122 
NERRS,ioos:station:NOAA.NERRS:rkblhwq:1,2017-11-03T18:45:00Z,26.0257,-81.7332,815.0,1111122 
NERRS,ioos:station:NOAA.NERRS:rkblhwq:1,2017-11-03T19:45:00Z,26.0257,-81.7332,1099.0,1111122 
NERRS,ioos:station:NOAA.NERRS:rkblhwq:1,2017-11-03T20:45:00Z,26.0257,-81.7332,1287.0,1111122 
NERRS,ioos:station:NOAA.NERRS:rkblhwq:1,2017-11-03T21:45:00Z,26.0257,-81.7332,1287.0,1111122 
NERRS,ioos:station:NOAA.NERRS:rkblhwq:1,2017-11-03T22:45:00Z,26.0257,-81.7332,1288.0,1111122 
NERRS,ioos:station:NOAA.NERRS:rkblhwq:1,2017-11-03T23:45:00Z,26.0257,-81.7332,1288.0,1111122 
NERRS,ioos:station:NOAA.NERRS:rkblhwq:1,2017-11-04T01:45:00Z,26.0257,-81.7332,187.0,1111122 
NERRS,ioos:station:NOAA.NERRS:rkblhwq:1,2017-11-04T02:45:00Z,26.0257,-81.7332,327.0,1111122 
NERRS,ioos:station:NOAA.NERRS:rkblhwq:1,2017-11-04T03:45:00Z,26.0257,-81.7332,281.0,1111122 
NERRS,ioos:station:NOAA.NERRS:rkblhwq:1,2017-11-04T04:45:00Z,26.0257,-81.7332,197.0,1111122 
NERRS,ioos:station:NOAA.NERRS:rkblhwq:1,2017-11-04T05:45:00Z,26.0257,-81.7332,527.0,1111122 
NERRS,ioos:station:NOAA.NERRS:rkblhwq:1,2017-11-04T06:45:00Z,26.0257,-81.7332,881.0,1111122 
NERRS,ioos:station:NOAA.NERRS:rkblhwq:1,2017-11-04T07:45:00Z,26.0257,-81.7332,1284.0,1111122 
NERRS,ioos:station:NOAA.NERRS:rkblhwq:1,2017-11-04T08:45:00Z,26.0257,-81.7332,1281.0,1111122 
NERRS,ioos:station:NOAA.NERRS:rkblhwq:1,2017-11-04T09:45:00Z,26.0257,-81.7332,1270.0,1111122 
NERRS,ioos:station:NOAA.NERRS:rkblhwq:1,2017-11-04T10:45:00Z,26.0257,-81.7332,1267.0,1111122 
NERRS,ioos:station:NOAA.NERRS:rkblhwq:1,2017-11-04T11:45:00Z,26.0257,-81.7332,1276.0,1111122 
NERRS,ioos:station:NOAA.NERRS:rkblhwq:1,2017-11-04T12:45:00Z,26.0257,-81.7332,1278.0,1111122 
NERRS,ioos:station:NOAA.NERRS:rkblhwq:1,2017-11-04T13:45:00Z,26.0257,-81.7332,223.0,1111122 
NERRS,ioos:station:NOAA.NERRS:rkblhwq:1,2017-11-04T14:45:00Z,26.0257,-81.7332,777.0,1111122 
NERRS,ioos:station:NOAA.NERRS:rkblhwq:1,2017-11-04T15:45:00Z,26.0257,-81.7332,169.0,1111122 
NERRS,ioos:station:NOAA.NERRS:rkblhwq:1,2017-11-04T16:45:00Z,26.0257,-81.7332,285.0,1111122 
NERRS,ioos:station:NOAA.NERRS:rkblhwq:1,2017-11-04T17:45:00Z,26.0257,-81.7332,315.0,1111122 
NERRS,ioos:station:NOAA.NERRS:rkblhwq:1,2017-11-04T18:45:00Z,26.0257,-81.7332,183.0,1111122 
NERRS,ioos:station:NOAA.NERRS:rkblhwq:1,2017-11-04T19:45:00Z,26.0257,-81.7332,1292.0,1111122 
NERRS,ioos:station:NOAA.NERRS:rkblhwq:1,2017-11-04T20:45:00Z,26.0257,-81.7332,1291.0,1111122 
NERRS,ioos:station:NOAA.NERRS:rkblhwq:1,2017-11-04T21:45:00Z,26.0257,-81.7332,1297.0,1111122 
NERRS,ioos:station:NOAA.NERRS:rkblhwq:1,2017-11-04T22:45:00Z,26.0257,-81.7332,1297.0,1111122 
NERRS,ioos:station:NOAA.NERRS:rkblhwq:1,2017-11-04T23:45:00Z,26.0257,-81.7332,1298.0,1111122 
NERRS,ioos:station:NOAA.NERRS:rkblhwq:1,2017-11-05T00:45:00Z,26.0257,-81.7332,1295.0,1111122 
NERRS,ioos:station:NOAA.NERRS:rkblhwq:1,2017-11-05T01:45:00Z,26.0257,-81.7332,171.0,1111122 
NERRS,ioos:station:NOAA.NERRS:rkblhwq:1,2017-11-05T02:45:00Z,26.0257,-81.7332,234.0,1111122 
NERRS,ioos:station:NOAA.NERRS:rkblhwq:1,2017-11-05T03:45:00Z,26.0257,-81.7332,310.0,1111122 
NERRS,ioos:station:NOAA.NERRS:rkblhwq:1,2017-11-05T04:45:00Z,26.0257,-81.7332,449.0,1111122 
NERRS,ioos:station:NOAA.NERRS:rkblhwq:1,2017-11-05T05:45:00Z,26.0257,-81.7332,1245.0,1111122 
NERRS,ioos:station:NOAA.NERRS:rkblhwq:1,2017-11-05T06:45:00Z,26.0257,-81.7332,1289.0,1111122 
NERRS,ioos:station:NOAA.NERRS:rkblhwq:1,2017-11-05T07:45:00Z,26.0257,-81.7332,1290.0,1111122 
NERRS,ioos:station:NOAA.NERRS:rkblhwq:1,2017-11-05T08:45:00Z,26.0257,-81.7332,1290.0,1111122 
NERRS,ioos:station:NOAA.NERRS:rkblhwq:1,2017-11-05T09:45:00Z,26.0257,-81.7332,1288.0,1111122 
NERRS,ioos:station:NOAA.NERRS:rkblhwq:1,2017-11-05T10:45:00Z,26.0257,-81.7332,1288.0,1111122 
NERRS,ioos:station:NOAA.NERRS:rkblhwq:1,2017-11-05T11:45:00Z,26.0257,-81.7332,1286.0,1111122 
NERRS,ioos:station:NOAA.NERRS:rkblhwq:1,2017-11-05T12:45:00Z,26.0257,-81.7332,1284.0,1111122 
NERRS,ioos:station:NOAA.NERRS:rkblhwq:1,2017-11-05T13:45:00Z,26.0257,-81.7332,1285.0,1111122 
NERRS,ioos:station:NOAA.NERRS:rkblhwq:1,2017-11-05T14:45:00Z,26.0257,-81.7332,1287.0,1111122 
NERRS,ioos:station:NOAA.NERRS:rkblhwq:1,2017-11-05T15:45:00Z,26.0257,-81.7332,1224.0,1111122 
NERRS,ioos:station:NOAA.NERRS:rkblhwq:1,2017-11-05T16:45:00Z,26.0257,-81.7332,1292.0,1111122 
NERRS,ioos:station:NOAA.NERRS:rkblhwq:1,2017-11-05T17:45:00Z,26.0257,-81.7332,1293.0,1111122 
NERRS,ioos:station:NOAA.NERRS:rkblhwq:1,2017-11-05T18:45:00Z,26.0257,-81.7332,1294.0,1111122 
NERRS,ioos:station:NOAA.NERRS:rkblhwq:1,2017-11-05T19:45:00Z,26.0257,-81.7332,1295.0,1111122 
NERRS,ioos:station:NOAA.NERRS:rkblhwq:1,2017-11-05T20:45:00Z,26.0257,-81.7332,1296.0,1111122 
NERRS,ioos:station:NOAA.NERRS:rkblhwq:1,2017-11-05T21:45:00Z,26.0257,-81.7332,1296.0,1111122 
NERRS,ioos:station:NOAA.NERRS:rkblhwq:1,2017-11-05T22:45:00Z,26.0257,-81.7332,1296.0,1111122 
NERRS,ioos:station:NOAA.NERRS:rkblhwq:1,2017-11-05T23:45:00Z,26.0257,-81.7332,1296.0,1111122 
NERRS,ioos:station:NOAA.NERRS:rkblhwq:1,2017-11-06T00:45:00Z,26.0257,-81.7332,1297.0,1111122 
NERRS,ioos:station:NOAA.NERRS:rkblhwq:1,2017-11-06T01:45:00Z,26.0257,-81.7332,1298.0,1111122 
NERRS,ioos:station:NOAA.NERRS:rkblhwq:1,2017-11-06T02:45:00Z,26.0257,-81.7332,1289.0,1111122 
NERRS,ioos:station:NOAA.NERRS:rkblhwq:1,2017-11-06T03:45:00Z,26.0257,-81.7332,1294.0,1111122 
NERRS,ioos:station:NOAA.NERRS:rkblhwq:1,2017-11-06T04:45:00Z,26.0257,-81.7332,1294.0,1111122 
NERRS,ioos:station:NOAA.NERRS:rkblhwq:1,2017-11-06T05:45:00Z,26.0257,-81.7332,1284.0,1111122 
NERRS,ioos:station:NOAA.NERRS:rkblhwq:1,2017-11-06T06:45:00Z,26.0257,-81.7332,1292.0,1111122 
NERRS,ioos:station:NOAA.NERRS:rkblhwq:1,2017-11-06T07:45:00Z,26.0257,-81.7332,1292.0,1111122 
NERRS,ioos:station:NOAA.NERRS:rkblhwq:1,2017-11-06T08:45:00Z,26.0257,-81.7332,1293.0,1111122 
NERRS,ioos:station:NOAA.NERRS:rkblhwq:1,2017-11-06T09:45:00Z,26.0257,-81.7332,1293.0,1111122 
NERRS,ioos:station:NOAA.NERRS:rkblhwq:1,2017-11-06T10:45:00Z,26.0257,-81.7332,1294.0,1111122 
NERRS,ioos:station:NOAA.NERRS:rkblhwq:1,2017-11-06T11:45:00Z,26.0257,-81.7332,1293.0,1111122 
NERRS,ioos:station:NOAA.NERRS:rkblhwq:1,2017-11-06T12:45:00Z,26.0257,-81.7332,1292.0,1111122 
NERRS,ioos:station:NOAA.NERRS:rkblhwq:1,2017-11-06T13:45:00Z,26.0257,-81.7332,1292.0,1111122 
NERRS,ioos:station:NOAA.NERRS:rkblhwq:1,2017-11-06T14:45:00Z,26.0257,-81.7332,1296.0,1111122 
NERRS,ioos:station:NOAA.NERRS:rkblhwq:1,2017-11-06T15:45:00Z,26.0257,-81.7332,1297.0,1111122 
NERRS,ioos:station:NOAA.NERRS:rkblhwq:1,2017-11-06T16:45:00Z,26.0257,-81.7332,1299.0,1111122 
NERRS,ioos:station:NOAA.NERRS:rkblhwq:1,2017-11-06T17:45:00Z,26.0257,-81.7332,829.0,1111122 
NERRS,ioos:station:NOAA.NERRS:rkblhwq:1,2017-11-06T18:45:00Z,26.0257,-81.7332,1297.0,1111122 
NERRS,ioos:station:NOAA.NERRS:rkblhwq:1,2017-11-06T19:45:00Z,26.0257,-81.7332,1298.0,1111122 
NERRS,ioos:station:NOAA.NERRS:rkblhwq:1,2017-11-06T20:45:00Z,26.0257,-81.7332,1303.0,1111122 
NERRS,ioos:station:NOAA.NERRS:rkblhwq:1,2017-11-06T21:45:00Z,26.0257,-81.7332,1303.0,1111122 
NERRS,ioos:station:NOAA.NERRS:rkblhwq:1,2017-11-06T22:45:00Z,26.0257,-81.7332,1304.0,1111122 
NERRS,ioos:station:NOAA.NERRS:rkblhwq:1,2017-11-06T23:45:00Z,26.0257,-81.7332,1304.0,1111122 
NERRS,ioos:station:NOAA.NERRS:rkblhwq:1,2017-11-07T00:45:00Z,26.0257,-81.7332,1305.0,1111122 
NERRS,ioos:station:NOAA.NERRS:rkblhwq:1,2017-11-07T01:45:00Z,26.0257,-81.7332,1305.0,1111122 
NERRS,ioos:station:NOAA.NERRS:rkblhwq:1,2017-11-07T02:45:00Z,26.0257,-81.7332,1304.0,1111122 
NERRS,ioos:station:NOAA.NERRS:rkblhwq:1,2017-11-07T03:45:00Z,26.0257,-81.7332,1187.0,1111122 
NERRS,ioos:station:NOAA.NERRS:rkblhwq:1,2017-11-07T04:45:00Z,26.0257,-81.7332,1278.0,1111122 
NERRS,ioos:station:NOAA.NERRS:rkblhwq:1,2017-11-07T05:45:00Z,26.0257,-81.7332,657.0,1111122 
NERRS,ioos:station:NOAA.NERRS:rkblhwq:1,2017-11-07T06:45:00Z,26.0257,-81.7332,1295.0,1111122 
NERRS,ioos:station:NOAA.NERRS:rkblhwq:1,2017-11-07T07:45:00Z,26.0257,-81.7332,1298.0,1111122 
NERRS,ioos:station:NOAA.NERRS:rkblhwq:1,2017-11-07T08:45:00Z,26.0257,-81.7332,1300.0,1111122 
NERRS,ioos:station:NOAA.NERRS:rkblhwq:1,2017-11-07T09:45:00Z,26.0257,-81.7332,1300.0,1111122 
NERRS,ioos:station:NOAA.NERRS:rkblhwq:1,2017-11-07T10:45:00Z,26.0257,-81.7332,1300.0,1111122 
NERRS,ioos:station:NOAA.NERRS:rkblhwq:1,2017-11-07T11:45:00Z,26.0257,-81.7332,1299.0,1111122 
NERRS,ioos:station:NOAA.NERRS:rkblhwq:1,2017-11-07T12:45:00Z,26.0257,-81.7332,1299.0,1111122 
NERRS,ioos:station:NOAA.NERRS:rkblhwq:1,2017-11-07T13:45:00Z,26.0257,-81.7332,1300.0,1111122 
NERRS,ioos:station:NOAA.NERRS:rkblhwq:1,2017-11-07T16:45:00Z,26.0257,-81.7332,939.0,1111122 
NERRS,ioos:station:NOAA.NERRS:rkblhwq:1,2017-11-07T18:45:00Z,26.0257,-81.7332,390.0,1111122 
NERRS,ioos:station:NOAA.NERRS:rkblhwq:1,2017-11-07T19:45:00Z,26.0257,-81.7332,1308.0,1111122 
NERRS,ioos:station:NOAA.NERRS:rkblhwq:1,2017-11-07T20:45:00Z,26.0257,-81.7332,1309.0,1111122 
NERRS,ioos:station:NOAA.NERRS:rkblhwq:1,2017-11-07T22:45:00Z,26.0257,-81.7332,1308.0,1111122 
NERRS,ioos:station:NOAA.NERRS:rkblhwq:1,2017-11-07T23:45:00Z,26.0257,-81.7332,1310.0,1111122 
NERRS,ioos:station:NOAA.NERRS:rkblhwq:1,2017-11-08T00:45:00Z,26.0257,-81.7332,1309.0,1111122 
NERRS,ioos:station:NOAA.NERRS:rkblhwq:1,2017-11-08T01:45:00Z,26.0257,-81.7332,1308.0,1111122 
NERRS,ioos:station:NOAA.NERRS:rkblhwq:1,2017-11-08T03:45:00Z,26.0257,-81.7332,1306.0,1111122 
NERRS,ioos:station:NOAA.NERRS:rkblhwq:1,2017-11-08T05:45:00Z,26.0257,-81.7332,1304.0,1111122 
NERRS,ioos:station:NOAA.NERRS:rkblhwq:1,2017-11-08T07:45:00Z,26.0257,-81.7332,1300.0,1111122 
NERRS,ioos:station:NOAA.NERRS:rkblhwq:1,2017-11-08T08:45:00Z,26.0257,-81.7332,1299.0,1111122 
NERRS,ioos:station:NOAA.NERRS:rkblhwq:1,2017-11-08T09:45:00Z,26.0257,-81.7332,1302.0,1111122 
NERRS,ioos:station:NOAA.NERRS:rkblhwq:1,2017-11-08T10:45:00Z,26.0257,-81.7332,1303.0,1111122 
NERRS,ioos:station:NOAA.NERRS:rkblhwq:1,2017-11-08T11:45:00Z,26.0257,-81.7332,1298.0,1111122 
NERRS,ioos:station:NOAA.NERRS:rkblhwq:1,2017-11-08T12:45:00Z,26.0257,-81.7332,1303.0,1111122 
NERRS,ioos:station:NOAA.NERRS:rkblhwq:1,2017-11-08T13:45:00Z,26.0257,-81.7332,1304.0,1111122 
NERRS,ioos:station:NOAA.NERRS:rkblhwq:1,2017-11-08T14:45:00Z,26.0257,-81.7332,1305.0,1111122 
NERRS,ioos:station:NOAA.NERRS:rkblhwq:1,2017-11-08T15:45:00Z,26.0257,-81.7332,1310.0,1111122 
NERRS,ioos:station:NOAA.NERRS:rkblhwq:1,2017-11-08T16:45:00Z,26.0257,-81.7332,1311.0,1111122 
NERRS,ioos:station:NOAA.NERRS:rkblhwq:1,2017-11-08T17:45:00Z,26.0257,-81.7332,1311.0,1111122 
NERRS,ioos:station:NOAA.NERRS:rkblhwq:1,2017-11-08T18:45:00Z,26.0257,-81.7332,8.0,1111122 
NERRS,ioos:station:NOAA.NERRS:rkblhwq:1,2017-11-08T19:45:00Z,26.0257,-81.7332,9.0,1111122 
NERRS,ioos:station:NOAA.NERRS:rkblhwq:1,2017-11-08T20:45:00Z,26.0257,-81.7332,8.0,1111122 
NERRS,ioos:station:NOAA.NERRS:rkblhwq:1,2017-11-08T21:45:00Z,26.0257,-81.7332,7.0,1111122 
NERRS,ioos:station:NOAA.NERRS:rkblhwq:1,2017-11-08T22:45:00Z,26.0257,-81.7332,6.0,1111122 
NERRS,ioos:station:NOAA.NERRS:rkblhwq:1,2017-11-08T23:45:00Z,26.0257,-81.7332,6.0,1111122 
NERRS,ioos:station:NOAA.NERRS:rkblhwq:1,2017-11-09T00:45:00Z,26.0257,-81.7332,7.0,1111122 
NERRS,ioos:station:NOAA.NERRS:rkblhwq:1,2017-11-09T01:45:00Z,26.0257,-81.7332,7.0,1111122 
NERRS,ioos:station:NOAA.NERRS:rkblhwq:1,2017-11-09T02:45:00Z,26.0257,-81.7332,6.0,1111122 
NERRS,ioos:station:NOAA.NERRS:rkblhwq:1,2017-11-09T03:45:00Z,26.0257,-81.7332,6.0,1111122 
NERRS,ioos:station:NOAA.NERRS:rkblhwq:1,2017-11-09T04:45:00Z,26.0257,-81.7332,6.0,1111122 
NERRS,ioos:station:NOAA.NERRS:rkblhwq:1,2017-11-09T05:45:00Z,26.0257,-81.7332,4.0,1111122 
NERRS,ioos:station:NOAA.NERRS:rkblhwq:1,2017-11-09T06:45:00Z,26.0257,-81.7332,5.0,1111122 
NERRS,ioos:station:NOAA.NERRS:rkblhwq:1,2017-11-09T07:45:00Z,26.0257,-81.7332,5.0,1111122 
NERRS,ioos:station:NOAA.NERRS:rkblhwq:1,2017-11-09T08:45:00Z,26.0257,-81.7332,4.0,1111122 
NERRS,ioos:station:NOAA.NERRS:rkblhwq:1,2017-11-09T09:45:00Z,26.0257,-81.7332,2.0,1111122 
NERRS,ioos:station:NOAA.NERRS:rkblhwq:1,2017-11-09T10:45:00Z,26.0257,-81.7332,5.0,1111122 
NERRS,ioos:station:NOAA.NERRS:rkblhwq:1,2017-11-09T11:45:00Z,26.0257,-81.7332,6.0,1111122 
NERRS,ioos:station:NOAA.NERRS:rkblhwq:1,2017-11-09T12:45:00Z,26.0257,-81.7332,6.0,1111122 
NERRS,ioos:station:NOAA.NERRS:rkblhwq:1,2017-11-09T13:45:00Z,26.0257,-81.7332,10.0,1111122 
NERRS,ioos:station:NOAA.NERRS:rkblhwq:1,2017-11-09T14:45:00Z,26.0257,-81.7332,12.0,1111122 
NERRS,ioos:station:NOAA.NERRS:rkblhwq:1,2017-11-09T15:45:00Z,26.0257,-81.7332,12.0,1111122 
NERRS,ioos:station:NOAA.NERRS:rkblhwq:1,2017-11-09T16:45:00Z,26.0257,-81.7332,22.0,1111122 
NERRS,ioos:station:NOAA.NERRS:rkblhwq:1,2017-11-09T17:45:00Z,26.0257,-81.7332,10.0,1111122 
NERRS,ioos:station:NOAA.NERRS:rkblhwq:1,2017-11-09T18:45:00Z,26.0257,-81.7332,10.0,1111122 
NERRS,ioos:station:NOAA.NERRS:rkblhwq:1,2017-11-09T19:45:00Z,26.0257,-81.7332,8.0,1111122 
NERRS,ioos:station:NOAA.NERRS:rkblhwq:1,2017-11-09T20:45:00Z,26.0257,-81.7332,9.0,1111122 
NERRS,ioos:station:NOAA.NERRS:rkblhwq:1,2017-11-09T21:45:00Z,26.0257,-81.7332,9.0,1111122 
NERRS,ioos:station:NOAA.NERRS:rkblhwq:1,2017-11-09T22:45:00Z,26.0257,-81.7332,8.0,1111122 
NERRS,ioos:station:NOAA.NERRS:rkblhwq:1,2017-11-09T23:45:00Z,26.0257,-81.7332,7.0,1111122 
NERRS,ioos:station:NOAA.NERRS:rkblhwq:1,2017-11-10T00:45:00Z,26.0257,-81.7332,5.0,1111122 
NERRS,ioos:station:NOAA.NERRS:rkblhwq:1,2017-11-10T01:45:00Z,26.0257,-81.7332,7.0,1111122 
NERRS,ioos:station:NOAA.NERRS:rkblhwq:1,2017-11-10T02:45:00Z,26.0257,-81.7332,6.0,1111122 
NERRS,ioos:station:NOAA.NERRS:rkblhwq:1,2017-11-10T03:45:00Z,26.0257,-81.7332,5.0,1111122 
NERRS,ioos:station:NOAA.NERRS:rkblhwq:1,2017-11-10T04:45:00Z,26.0257,-81.7332,6.0,1111122 
NERRS,ioos:station:NOAA.NERRS:rkblhwq:1,2017-11-10T05:45:00Z,26.0257,-81.7332,6.0,1111122 
NERRS,ioos:station:NOAA.NERRS:rkblhwq:1,2017-11-10T06:45:00Z,26.0257,-81.7332,6.0,1111122 
NERRS,ioos:station:NOAA.NERRS:rkblhwq:1,2017-11-10T07:45:00Z,26.0257,-81.7332,5.0,1111122 
NERRS,ioos:station:NOAA.NERRS:rkblhwq:1,2017-11-10T08:45:00Z,26.0257,-81.7332,6.0,1111122 
NERRS,ioos:station:NOAA.NERRS:rkblhwq:1,2017-11-10T09:45:00Z,26.0257,-81.7332,6.0,1111122 
NERRS,ioos:station:NOAA.NERRS:rkblhwq:1,2017-11-10T10:45:00Z,26.0257,-81.7332,6.0,1111122 
NERRS,ioos:station:NOAA.NERRS:rkblhwq:1,2017-11-10T11:45:00Z,26.0257,-81.7332,10.0,1111122 
NERRS,ioos:station:NOAA.NERRS:rkblhwq:1,2017-11-10T12:45:00Z,26.0257,-81.7332,7.0,1111122 
NERRS,ioos:station:NOAA.NERRS:rkblhwq:1,2017-11-10T13:45:00Z,26.0257,-81.7332,5.0,1111122 
NERRS,ioos:station:NOAA.NERRS:rkblhwq:1,2017-11-10T14:45:00Z,26.0257,-81.7332,10.0,1111122 
NERRS,ioos:station:NOAA.NERRS:rkblhwq:1,2017-11-10T15:45:00Z,26.0257,-81.7332,13.0,1111122 
NERRS,ioos:station:NOAA.NERRS:rkblhwq:1,2017-11-10T16:45:00Z,26.0257,-81.7332,12.0,1111122 
NERRS,ioos:station:NOAA.NERRS:rkblhwq:1,2017-11-10T17:45:00Z,26.0257,-81.7332,18.0,1111122 
NERRS,ioos:station:NOAA.NERRS:rkblhwq:1,2017-11-10T18:45:00Z,26.0257,-81.7332,12.0,1111122 
NERRS,ioos:station:NOAA.NERRS:rkblhwq:1,2017-11-10T19:45:00Z,26.0257,-81.7332,11.0,1111122 
NERRS,ioos:station:NOAA.NERRS:rkblhwq:1,2017-11-10T20:45:00Z,26.0257,-81.7332,12.0,1111122 
NERRS,ioos:station:NOAA.NERRS:rkblhwq:1,2017-11-10T21:45:00Z,26.0257,-81.7332,11.0,1111122 
NERRS,ioos:station:NOAA.NERRS:rkblhwq:1,2017-11-10T22:45:00Z,26.0257,-81.7332,10.0,1111122 
NERRS,ioos:station:NOAA.NERRS:rkblhwq:1,2017-11-10T23:45:00Z,26.0257,-81.7332,7.0,1111122 
NERRS,ioos:station:NOAA.NERRS:rkblhwq:1,2017-11-11T00:45:00Z,26.0257,-81.7332,7.0,1111122 
NERRS,ioos:station:NOAA.NERRS:rkblhwq:1,2017-11-11T01:45:00Z,26.0257,-81.7332,9.0,1111122 
NERRS,ioos:station:NOAA.NERRS:rkblhwq:1,2017-11-11T02:45:00Z,26.0257,-81.7332,8.0,1111122 
NERRS,ioos:station:NOAA.NERRS:rkblhwq:1,2017-11-11T03:45:00Z,26.0257,-81.7332,9.0,1111122 
NERRS,ioos:station:NOAA.NERRS:rkblhwq:1,2017-11-11T04:45:00Z,26.0257,-81.7332,10.0,1111122 
NERRS,ioos:station:NOAA.NERRS:rkblhwq:1,2017-11-11T05:45:00Z,26.0257,-81.7332,11.0,1111122 
NERRS,ioos:station:NOAA.NERRS:rkblhwq:1,2017-11-11T06:45:00Z,26.0257,-81.7332,7.0,1111122 
NERRS,ioos:station:NOAA.NERRS:rkblhwq:1,2017-11-11T07:45:00Z,26.0257,-81.7332,9.0,1111122 
NERRS,ioos:station:NOAA.NERRS:rkblhwq:1,2017-11-11T08:45:00Z,26.0257,-81.7332,8.0,1111122 
NERRS,ioos:station:NOAA.NERRS:rkblhwq:1,2017-11-11T09:45:00Z,26.0257,-81.7332,8.0,1111122 
NERRS,ioos:station:NOAA.NERRS:rkblhwq:1,2017-11-11T10:45:00Z,26.0257,-81.7332,8.0,1111122 
NERRS,ioos:station:NOAA.NERRS:rkblhwq:1,2017-11-11T11:45:00Z,26.0257,-81.7332,7.0,1111122 
NERRS,ioos:station:NOAA.NERRS:rkblhwq:1,2017-11-11T12:45:00Z,26.0257,-81.7332,6.0,1111122 
NERRS,ioos:station:NOAA.NERRS:rkblhwq:1,2017-11-11T13:45:00Z,26.0257,-81.7332,7.0,1111122 
NERRS,ioos:station:NOAA.NERRS:rkblhwq:1,2017-11-11T14:45:00Z,26.0257,-81.7332,12.0,1111122 
NERRS,ioos:station:NOAA.NERRS:rkblhwq:1,2017-11-11T15:45:00Z,26.0257,-81.7332,13.0,1111122 
NERRS,ioos:station:NOAA.NERRS:rkblhwq:1,2017-11-11T16:45:00Z,26.0257,-81.7332,12.0,1111122 
NERRS,ioos:station:NOAA.NERRS:rkblhwq:1,2017-11-11T17:45:00Z,26.0257,-81.7332,14.0,1111122 
NERRS,ioos:station:NOAA.NERRS:rkblhwq:1,2017-11-11T18:45:00Z,26.0257,-81.7332,16.0,1111122 
NERRS,ioos:station:NOAA.NERRS:rkblhwq:1,2017-11-11T19:45:00Z,26.0257,-81.7332,14.0,1111122 
NERRS,ioos:station:NOAA.NERRS:rkblhwq:1,2017-11-11T20:45:00Z,26.0257,-81.7332,12.0,1111122 
NERRS,ioos:station:NOAA.NERRS:rkblhwq:1,2017-11-11T21:45:00Z,26.0257,-81.7332,13.0,1111122 
NERRS,ioos:station:NOAA.NERRS:rkblhwq:1,2017-11-11T22:45:00Z,26.0257,-81.7332,12.0,1111122 
NERRS,ioos:station:NOAA.NERRS:rkblhwq:1,2017-11-11T23:45:00Z,26.0257,-81.7332,10.0,1111122 
NERRS,ioos:station:NOAA.NERRS:rkblhwq:1,2017-11-12T00:45:00Z,26.0257,-81.7332,9.0,1111122 